This demonstration page uses our WeatherBlox Daily Observations layout. Learn more.

Left ArrowRight Arrow

41.55636, -103.73856

Hourly Observations for July 16, 2020

Temp ( °F °C ) Dew Point ( °F °C ) Humidity (%) Winds ( mph kmh ) Pressure ( in mb ) Visibility ( mi km ) Precip ( " mm )
6:58 pm 18:58 Clear 77 24.8 51 10.4 40 40 S 23 37 29.99 1016 10 16 0.00 0.00
7:58 pm 19:58 Clear 73 23 51 10.8 46 46 S 18 30 29.99 1016 10 16 0.00 0.00
8:58 pm 20:58 Clear 69 20.7 53 11.4 55 55 SSE 14 22 29.99 1016 10 16 0.00 0.00
9:58 pm 21:58 Clear 69 20.5 53 11.9 58 58 SE 16 26 29.99 1016 10 16 0.00 0.00
10:58 pm 22:58 Clear 68 20 54 12 60 60 SE 12 19 29.96 1015 10 16 0.00 0.00
11:58 pm 23:58 Clear 65 18.1 55 13 72 72 SSW 3 6 29.94 1014 10 16 0.00 0.00
12:58 am 00:58 Clear 65 18.1 56 13.3 74 74 Calm 29.93 1014 10 16 0.00 0.00
1:58 am 01:58 Clear 62 16.9 56 13.2 79 79 E 9 15 29.90 1013 10 16 0.00 0.00
2:58 am 02:58 Clear 62 16.8 55 13 78 78 Calm 29.91 1013 10 16 0.00 0.00
3:58 am 03:58 Clear 59 14.9 55 12.6 86 86 S 8 13 29.92 1013 10 16 0.00 0.00
4:58 am 04:58 Clear 56 13.3 53 11.6 90 90 SSW 7 11 29.93 1014 10 16 0.00 0.00
5:58 am 05:58 Sunny 55 12.8 52 11.2 90 90 SE 9 15 29.95 1014 10 16 0.00 0.00
6:58 am 06:58 Sunny 60 15.3 56 13.1 87 87 SW 7 11 29.96 1015 10 16 0.00 0.00
7:58 am 07:58 Sunny 64 18 55 13 73 73 WNW 12 19 29.97 1015 10 16 0.00 0.00
8:58 am 08:58 Sunny 68 20 57 14 69 69 NNW 13 20 29.98 1015 10 16 0.00 0.00
9:56 am 09:56 Sunny 73 22.6 57 13.8 58 58 NNW 6 9 29.98 1015 10 16 0.00 0.00
10:56 am 10:56 Sunny 76 24.5 55 13 49 49 N 10 17 29.98 1015 10 16 0.00 0.00
11:56 am 11:56 Sunny 79 26.3 55 12.6 43 43 N 7 11 29.98 1015 10 16 0.00 0.00
12:58 pm 12:58 Sunny 82 27.7 55 12.7 40 40 N 6 9 29.95 1014 10 16 0.00 0.00
1:58 pm 13:58 Sunny 86 29.8 54 12 33 33 NE 10 17 29.93 1013 10 16 0.00 0.00
2:58 pm 14:58 Sunny 89 31.4 49 9.3 25 25 ENE 6 9 29.91 1013 10 16 0.00 0.00
3:58 pm 15:58 Sunny 91 32.6 41 5.2 18 18 Calm 29.91 1013 10 16 0.00 0.00
4:58 pm 16:58 Sunny 91 32.6 42 5.3 18 18 NW 5 7 29.90 1013 10 16 0.00 0.00
5:58 pm 17:58 Sunny 91 33 43 5.9 18 18 N 5 7 29.89 1012 10 16 0.00 0.00

Powered by AerisWeather